"Pseudo-MPEC" for C0T8ZX1

Created 2019 Dec 4 2:07:07 UT using Find_Orb

Click here for an explanation of pseudo-MPECs

 
 Astrometry: 
     C0T8ZX1  C2019 12 03.30395 05 22 18.62 +10 58 03.0    ~C38M 20.4 GVNEOCP703
     C0T8ZX1  C2019 12 03.30952 05 22 23.93 +10 57 23.6    ~C38M 21.6 GVNEOCP703
     C0T8ZX1  C2019 12 03.31509 05 22 29.15 +10 56 44.7    ~C38M 20.1 GVNEOCP703
     C0T8ZX1  C2019 12 03.32066 05 22 34.40 +10 56 05.7    ~C38M 21.0 GVNEOCP703
     C0T8ZX1  C2019 12 03.41934 05 24 09.50 +10 44 05.9    ~C3AM 19.6 GVNEOCPI52
     C0T8ZX1  C2019 12 03.42031 05 24 10.45 +10 43 58.5    ~C3AM 19.8 GVNEOCPI52
     C0T8ZX1  C2019 12 03.42128 05 24 11.40 +10 43 50.9    ~C3AM 20.1 GVNEOCPI52
     C0T8ZX1  C2019 12 03.42225 05 24 12.37 +10 43 43.9    ~C3AM 19.6 GVNEOCPI52
     C0T8ZX1 bC2019 12 03w'rOWo))C0AstrometrytrfWhQQq_[u3;'UhwyWBv_:%0Oy:r/4DL01
     C0T8ZX1 bC2019 12 03uE3'Q*f2%'-/o^.M+ftd\+9[E2j3V?Xredacted;CF/M3A-gnvrRL01
     C0T8ZX1 bC2019 12 03*yYie-T!8m\7YJclickjE)3Fl;34H6PherebHforZ;[$Zi2[[Y=sL01
     C0T8ZX1 bC2019 12 039ww]wJCse0ag0Q]`n,t/gRj0dKlDC?7@N=wx:explanationpJ1_L01
     C0T8ZX1 IC2019 12 03.95738205 34 59.16 +09 28 47.5    ~C3Nb       VNEOCPJ95
     C0T8ZX1 KC2019 12 03.96227905 35 05.23 +09 28 02.8    ~C3Nb 19.5 GVNEOCPJ95
     C0T8ZX1 KC2019 12 03.96569605 35 09.47 +09 27 31.1    ~C3Nb 19.7 GVNEOCPJ95

Station data:
(703) Catalina Sky Survey  (N32.417006 W110.732640)  US/Arizona.  Observers
   T. A. Pruyne, B. M. Africano, E. J. Christensen, G. A. Farneth, D. C.
   Fuls, A. R. Gibbs, A. D. Grauer, H. Gröller, J. A. Johnson, R. A.
   Kowalski, S. M. Larson, G. J. Leonard, D. Rankin, R. L. Seaman, F. C.
   Shelly. 0.68 m Schmidt + 10K CCD.
(I52) Steward Observatory, Mt. Lemmon Station  (N32.442547 W110.788920)
   US/Arizona.  Observers T. A. Pruyne, B. M. Africano, E. J. Christensen, G.
   A. Farneth, D. C. Fuls, A. R. Gibbs, A. D. Grauer, H. Gröller, J. A.
   Johnson, R. A. Kowalski, S. M. Larson, G. J. Leonard, D. Rankin, R. L.
   Seaman, F. C. Shelly. 1.0-m reflector + CCD.
(J95) Great Shefford  (N51.474969 W1.447003)  UK.  Observer P. Birtwhistle.
   0.40-m f/6.0 Schmidt-Cassegrain + CCD.
(L01) Višnjan Observatory, Tičan  (N45.290900 E13.749300)  Croatia.
   Observers K. Korlević, E. Pettarin. Measurer E. Pettarin. 1.0-m f/2.9
   reflector + CCD.

Orbital elements:  C0T8ZX1
   Perihelion 2020 Jan 18.726726 +/- 0.0241 TT = 17:26:29 (JD 2458867.226726)
Epoch 2019 Dec  4.0 TT = JDT 2458821.5   Earth MOID: 0.0029   Ma: 0.0093
M 338.80924103 +/- 0.07             (J2000 ecliptic)          AutoNEOCP
n   0.46342174 +/- 0.00141          Peri.  321.65095 +/- 0.7
a   1.65380809 +/- 0.00335          Node   173.45809 +/- 0.6
e   0.4995929 +/- 0.00124           Incl.    0.42633 +/- 0.0012
P   2.13/776.82d           H 26.9   G  0.15   U  8.3  
q 0.82757725 +/- 0.000442    Q 2.48003892 +/- 0.00708
From 15 observations 2019 Dec. 3 (15.9 hr); mean residual 0".22
Residuals in arcseconds: 
191203 703  .70-  .08-    191203 I52  .02+  .13+    191203 L01  .10-  .21+    
191203 703  .42+  .40-    191203 I52  .14-  .18-    191203 L01  .07-  .18-    
191203 703  .11+  .08-    191203 I52  .02-  .11+    191203 J95  .22+  .04-    
191203 703  .12+  .27+    191203 L01  .01-  .05-    191203 J95  .03-  .16+    
191203 I52  .17+  .25+    191203 L01  .14+  .18+    191203 J95  .19-  .15-    

Ephemerides (geocentric):
Date (UTC) HH   RA              Dec         delta   r     elong  mag " sig PA
---- -- -- --  -------------   -----------  ------ ------ -----  --- ---- ---
2019 12 04 02  05 37 42.128   +09 12 10.19  .03010 1.0142 160.9 20.2 .588 146
2019 12 04 03  05 38 39.801   +09 05 21.82  .02985 1.0139 160.7 20.2 .651 143
2019 12 04 04  05 39 38.435   +08 58 25.84  .02959 1.0136 160.5 20.2 .721 141
2019 12 04 05  05 40 38.052   +08 51 22.06  .02933 1.0133 160.2 20.2 .798 139
2019 12 04 06  05 41 38.674   +08 44 10.31  .02908 1.0130 160.0 20.2 .882 137
2019 12 04 07  05 42 40.325   +08 36 50.37  .02882 1.0127 159.8 20.2 .973 135
2019 12 04 08  05 43 43.029   +08 29 22.05  .02857 1.0124 159.5 20.2 1.07 134
2019 12 04 09  05 44 46.809   +08 21 45.13  .02832 1.0122 159.3 20.1 1.18 133
2019 12 04 10  05 45 51.692   +08 13 59.40  .02806 1.0119 159.0 20.1 1.29 131
2019 12 04 11  05 46 57.704   +08 06 04.64  .02781 1.0116 158.7 20.1 1.41 130
2019 12 04 12  05 48 04.869   +07 58 00.62  .02756 1.0113 158.5 20.1 1.54 129
2019 12 04 13  05 49 13.217   +07 49 47.12  .02731 1.0110 158.2 20.1 1.68 129
2019 12 04 14  05 50 22.774   +07 41 23.88  .02706 1.0107 157.9 20.1 1.83 128
2019 12 04 15  05 51 33.570   +07 32 50.68  .02681 1.0104 157.7 20.1 1.99 127
2019 12 04 16  05 52 45.635   +07 24 07.25  .02657 1.0102 157.4 20.1 2.16 127
2019 12 04 17  05 53 58.997   +07 15 13.33  .02632 1.0099 157.1 20.1 2.34 126
2019 12 04 18  05 55 13.690   +07 06 08.68  .02607 1.0096 156.8 20.0 2.53 125
2019 12 04 19  05 56 29.744   +06 56 53.01  .02583 1.0093 156.5 20.0 2.73 125
2019 12 04 20  05 57 47.192   +06 47 26.04  .02559 1.0090 156.2 20.0 2.95 125
2019 12 04 21  05 59 06.068   +06 37 47.50  .02534 1.0087 155.8 20.0 3.17 124
2019 12 04 22  06 00 26.407   +06 27 57.10  .02510 1.0084 155.5 20.0 3.41 124
2019 12 04 23  06 01 48.243   +06 17 54.53  .02486 1.0082 155.2 20.0 3.67 123
2019 12 05 00  06 03 11.614   +06 07 39.49  .02462 1.0079 154.8 20.0 3.93 123
2019 12 05 01  06 04 36.556   +05 57 11.68  .02439 1.0076 154.5 20.0 4.22 123
2019 12 05 02  06 06 03.108   +05 46 30.78  .02415 1.0073 154.1 19.9 4.51 123
2019 12 05 03  06 07 31.309   +05 35 36.46  .02391 1.0070 153.8 19.9 4.83 122
2019 12 05 04  06 09 01.199   +05 24 28.39  .02368 1.0067 153.4 19.9 5.16 122
2019 12 05 05  06 10 32.819   +05 13 06.25  .02345 1.0065 153.0 19.9 5.51 122
2019 12 05 06  06 12 06.211   +05 01 29.68  .02321 1.0062 152.6 19.9 5.87 122
2019 12 05 07  06 13 41.418   +04 49 38.35  .02298 1.0059 152.2 19.9 6.26 121
2019 12 05 08  06 15 18.484   +04 37 31.89  .02276 1.0056 151.8 19.9 6.66 121
2019 12 05 09  06 16 57.455   +04 25 09.95  .02253 1.0053 151.4 19.9 7.09 121
2019 12 05 10  06 18 38.376   +04 12 32.17  .02230 1.0050 151.0 19.9 7.54 121
2019 12 05 11  06 20 21.295   +03 59 38.19  .02208 1.0047 150.5 19.9 8.00 121
2019 12 05 12  06 22 06.260   +03 46 27.63  .02185 1.0045 150.1 19.8 8.50 121
2019 12 05 13  06 23 53.318   +03 33 00.11  .02163 1.0042 149.7 19.8 9.01 121
2019 12 05 14  06 25 42.522   +03 19 15.28  .02141 1.0039 149.2 19.8 9.55 121
2019 12 05 15  06 27 33.921   +03 05 12.74  .02120 1.0036 148.7 19.8 10.1 120
2019 12 05 16  06 29 27.568   +02 50 52.12  .02098 1.0033 148.2 19.8 10.7 120
2019 12 05 17  06 31 23.514   +02 36 13.05  .02077 1.0030 147.7 19.8 11.3 120
2019 12 05 18  06 33 21.815   +02 21 15.14  .02055 1.0028 147.2 19.8 12.0 120
2019 12 05 19  06 35 22.523   +02 05 58.03  .02034 1.0025 146.7 19.8 12.7 120
2019 12 05 20  06 37 25.696   +01 50 21.35  .02013 1.0022 146.2 19.8 13.4 120
2019 12 05 21  06 39 31.387   +01 34 24.73  .01993 1.0019 145.6 19.8 14.1 120
2019 12 05 22  06 41 39.654   +01 18 07.82  .01972 1.0016 145.1 19.8 14.9 120
2019 12 05 23  06 43 50.555   +01 01 30.27  .01952 1.0014 144.5 19.7 15.7 120
2019 12 06 00  06 46 04.146   +00 44 31.75  .01932 1.0011 143.9 19.7 16.6 120
2019 12 06 01  06 48 20.485   +00 27 11.93  .01913 1.0008 143.4 19.7 17.4 120